Weather in Novomargaritovo

Russia / Rostov Oblast     46°53′59″N   38°49′31″E
temp.,
°C
wind,
m/s
gust,
m/s
humid.,
%
clouds,
%
prec.,
mm/h
press.,
hPa
HPBL,
m
25 february, thu
thu2500:00−10e356663 0.0 1039310
03:00−10e357159 0.0 1038243
06:00−10e236928 0.0 1037179
09:00−9sse235251 0.0 1036242
12:00−5sw334480 0.0 1035339
15:00−3wsw565790 0.0 1033378
18:00−2wsw5876100 0.0 1031326
21:00−1wsw61088100 0.1 1030291
26 february, fri
fri2600:000wsw81492100 0.1 1029301
03:00+1wsw71295100 0.4 1028262
06:00+1wsw5997100 0.2 1026199
09:00+1wsw6898100 0.6 1026149
12:00+1wsw5699100 0.1 1025106
15:00+2wsw589897 0.2 1024114
18:00+2wsw589995 0.0 1023121
21:00+2sw579795 0.0 102298
27 february, sat
sat2700:00+2wsw71296100 0.1 1021186
03:00+3wsw81497100 0.4 1019222
06:00+2wsw71199100 0.1 1017177
09:00+2wsw6109799 0.3 1017160
12:00+2wsw6997100 0.3 1016152
15:00+2wsw699899 0.3 1015156
18:00+2wsw5795100 0.0 101394
21:00+2wsw4595100 0.9 101464
28 february, sun
sun2800:00+2w5693100 0.1 101373
03:00+2nw4587100 0.1 101346
06:00+1nw2389100 0.0 101328
09:00+1nw2296100 0.0 101450
12:00+1w3494100 0.0 101579
15:00+1wnw459899 0.1 1016123
18:00+1nw348991 0.1 101851
21:00+1nnw349186 0.1 102134
1 march, mon
mon100:000nnw348962 0.0 102229
03:000nnw348965 0.0 102448
06:00−2n338978 0.0 102534
09:00−1n238587 0.0 102799
12:000n128380 0.0 1028157
15:00+1wnw237660 0.0 1028151
18:00+1n227995 0.0 103025
21:000nne348696 0.0 103262